This demonstration page uses our WeatherBlox Daily Observations layout. Learn more.

Left ArrowRight Arrow

39.29038, -76.61219

Hourly Observations for November 26, 2018

Temp ( °F °C ) Dew Point ( °F °C ) Humidity (%) Winds ( mph kmh ) Pressure ( in mb ) Visibility ( mi km ) Precip ( " mm )
12:54 am 00:54 undefined 48 8.9 42 5.6 80 80 undefined N/A 29.90 1013 N/A 0.00 0.00
1:54 am 01:54 undefined 48 8.9 42 5.6 80 80 undefined N/A 29.86 1011 N/A 0.00 0.00
2:54 am 02:54 undefined 48 8.9 43 6.1 83 83 undefined N/A 29.86 1011 N/A 0.00 0.00
3:54 am 03:54 undefined 48 8.9 44 6.7 86 86 undefined N/A 29.78 1009 N/A 0.00 0.00
4:54 am 04:54 undefined 47 8.3 44 6.7 90 90 undefined N/A 29.80 1009 N/A 0.00 0.00
5:54 am 05:54 undefined 48 8.9 45 7.2 89 89 undefined N/A 29.80 1009 N/A 0.00 0.00
6:54 am 06:54 undefined 48 8.9 45 7.2 89 89 undefined N/A 29.78 1008 N/A 0.00 0.00
7:54 am 07:54 undefined 49 9.4 45 7.2 86 86 undefined N/A 29.75 1007 N/A 0.00 0.00
8:54 am 08:54 undefined 49 9.4 45 7.2 86 86 undefined N/A 29.73 1007 N/A 0.00 0.00
9:54 am 09:54 undefined 49 9.4 45 7.2 86 86 undefined N/A 29.68 1005 N/A 0.01 0.25
10:54 am 10:54 undefined 50 10 46 7.8 86 86 undefined N/A 29.66 1004 N/A 0.07 1.78
11:54 am 11:54 undefined 50 10 47 8.3 89 89 undefined N/A 29.58 1002 N/A 0.12 3.05
12:54 pm 12:54 undefined 50 10 48 8.9 93 93 undefined N/A 29.54 1000 N/A 0.19 4.83
1:54 pm 13:54 undefined 51 10.6 49 9.4 92 92 undefined N/A 29.51 999 N/A 0.01 0.25
2:54 pm 14:54 undefined 51 10.6 49 9.4 92 92 undefined N/A 29.48 998 N/A 0.00 0.00
3:54 pm 15:54 undefined 52 11.1 49 9.4 89 89 undefined N/A 29.48 998 N/A 0.00 0.00
4:54 pm 16:54 undefined 52 11.1 49 9.4 89 89 undefined N/A 29.49 999 N/A 0.00 0.00
5:54 pm 17:54 undefined 50 10 41 5 71 71 undefined N/A 29.47 998 N/A 0.01 0.25
6:54 pm 18:54 undefined 50 10 40 4.4 68 68 undefined N/A 29.50 999 N/A 0.00 0.00
7:54 pm 19:54 undefined 49 9.4 38 3.3 66 66 undefined N/A 29.53 1000 N/A 0.00 0.00
8:54 pm 20:54 undefined 45 7.2 32 0 61 61 undefined N/A 29.54 1001 N/A 0.00 0.00
9:54 pm 21:54 undefined 44 6.7 29 -1.7 55 55 undefined N/A 29.55 1001 N/A 0.00 0.00
10:54 pm 22:54 undefined 43 6.1 29 -1.7 58 58 undefined N/A 29.56 1001 N/A 0.00 0.00
11:54 pm 23:54 undefined 43 6.1 29 -1.7 58 58 undefined N/A 29.56 1001 N/A 0.00 0.00

Powered by AerisWeather